Regional Weather Roundup
Issued by NWS Midland/Odessa, TX

Skip options and go directly to product.
Home | Oldest Version | Next Version | Current Version | All | Text Only | Save Text | Print | Product List | Glossary On

Skip product version selection by date and time.   
472
ASUS44 KMAF 052210
RWRMAF
MIDLAND AREA WEATHER ROUNDUP
NATIONAL WEATHER SERVICE MIDLAND TX
500 PM CDT SUN JUL 05 2015

...IN SOUTHWEST TEXAS AND SOUTHEAST NEW MEXICO...

CITY           SKY/WX    TMP DP  RH WIND       PRES   REMARKS
ALPINE         PTSUNNY   85  59  41 S8        30.11F
ANDREWS        PTSUNNY   92  60  34 S8        29.95F
ARTESIA        PTSUNNY   90  61  37 W8        29.94F
BIG SPRING     SUNNY     94  63  35 SE16G22   29.96F
CARLSBAD       PTSUNNY   95  58  28 VRB3      29.91F
DRYDEN           N/A     93  66  40 SE12G20   29.92F
FORT STOCKTON  CLOUDY    86  64  47 S15       29.96S
GUAD PASS      PTSUNNY   82  55  39 SW12      30.12F
HOBBS          MOSUNNY   93  54  26 S8        29.97F
MARFA          PTSUNNY  N/A N/A N/A SE9       30.10F
MIDLAND AIRPK  MOSUNNY   95  60  30 SE15      29.94F
MIDLAND INTL   MOSUNNY   94  62  34 VRB7      29.94F
ODESSA         MOSUNNY   93  61  34 S12G21    29.95F
PECOS          PTSUNNY   96  62  32 SE16G26   29.89S
PRESIDIO       FAIR      97  59  27 S6        29.91F
SEMINOLE       PTSUNNY   92  56  29 S5        29.96F
SNYDER         MOSUNNY   89  68  50 SE15      29.95F
WINK           MOSUNNY   98  62  30 SE16G22   29.89F
$$
...OTHER STATIONS IN TEXAS...

CITY           SKY/WX    TMP DP  RH WIND       PRES   REMARKS
ABILENE        MOSUNNY   93  65  39 S17G24    29.94F
AMARILLO       SUNNY     90  59  35 S17G24    29.97F
AUSTIN         PTSUNNY   88  72  58 S14G25    29.96F
BROWNSVILLE    CLOUDY    88  77  69 SE20G29   29.98F HX 100
CORPUS CHRISTI MOSUNNY   90  75  61 SE24G30   29.96F HX 100
DALLAS FTW     MOSUNNY   91  67  44 S20G25    29.93F
DEL RIO        MOSUNNY   92  68  45 SE18G24   29.89F
EL PASO        MOSUNNY   92  58  31 W15       29.98F
HOUSTON INT    MOSUNNY   91  73  55 S13G21    30.01F
LUBBOCK        PTSUNNY   91  63  39 S13       29.96F
SAN ANGELO     SUNNY     93  66  40 S14G21    29.94F
SAN ANTONIO    MOSUNNY   90  72  55 S21       29.97F
WACO           MOSUNNY   91  70  49 S18       29.96F
WICHITA FALLS  NOT AVBL
$$
...OTHER LOCATIONS IN NEW MEXICO...

CITY           SKY/WX    TMP DP  RH WIND       PRES   REMARKS
ALAMAGORDO     MOSUNNY   91  52  25 SW8       29.98F
ALBUQUERQUE    LGT RAIN  85  51  31 NW8       30.06S
CANNON AFB     MOSUNNY   91  59  33 S10       29.99F
CLOVIS         MOSUNNY   90  57  33 S15         N/A
HOLLOMAN AFB   MOSUNNY   95  55  26 SW20      29.95F
ROSWELL        LGT RAIN  86  61  42 W14       29.95S
RUIDOSO        LGT RAIN  72  55  56 SE5       30.22F
SANTA FE       MOSUNNY   81  49  32 W15G23    30.11F
TRUTH OR CONSE CLOUDY    88  56  33 VRB3      30.02F
TUCUMCARI      MOSUNNY   97  51  21 SW14      29.93F
$$

USA.gov is the U.S. government's official web portal to all federal, state and local government web resources and services.